Hourly Data Report for June 12, 2021

WINNIPEG THE FORKS
MANITOBA
Current Station Operator: ECCC - MSC

49°53'18.008" N
97°07'46.007" W
230.00 m
5023262
71579
XWN

Download Data

Hourly Data (June 2021)
Hourly Data Report for June 12, 2021
TIME
LST
Temp Definition
°C
Dew Point Definition
°C
Rel Hum Definition
%
Precip. Amount Definition
mm

Wind Dir Definition
10's deg

Wind Spd Definition
km/h
Visibility Definition
km
Stn Press Definition
kPa
Hmdx Definition


Wind Chill Definition


Weather Definition


00:00 18.3 12.5 69 0.0 24 9   97.69     LegendNANA
01:00 18.6 11.9 65 0.0 25 12   97.74     LegendNANA
02:00 17.6 11.2 66 0.0 24 11   97.80     LegendNANA
03:00 16.8 10.7 67 0.0 24 8   97.88     LegendNANA
04:00 16.3 10.4 68 0.0 24 8   97.95     LegendNANA
05:00 16.1 10.2 68 0.0 23 7   98.03     LegendNANA
06:00 16.8 9.5 62 0.0 26 9   98.08     LegendNANA
07:00 17.9 9.8 59 0.0 24 8   98.15     LegendNANA
08:00 19.1 9.5 54 0.0 24 12   98.17     LegendNANA
09:00 20.9 9.2 47 0.0 26 13   98.24     LegendNANA
10:00 22.3 8.5 41 0.0 25 14   98.30     LegendNANA
11:00 23.3 7.4 36 0.0 25 14   98.34     LegendNANA
12:00 24.1 4.2 28 0.0 27 13   98.36     LegendNANA
13:00 24.7 4.6 27 0.0 25 14   98.37     LegendNANA
14:00 25.4 5.4 28 0.0 27 12   98.37 25   LegendNANA
15:00 26.4 5.2 26 0.0 25 14   98.36 26   LegendNANA
16:00 27.0 5.0 24 0.0 27 10   98.36 26   LegendNANA
17:00 27.1 4.2 23 0.0 27 12   98.37 26   LegendNANA
18:00 27.0 4.6 24 0.0 25 12   98.36 26   LegendNANA
19:00 26.6 5.4 26 0.0 25 10   98.37 26   LegendNANA
20:00 25.4 6.1 29 0.0 26 7   98.38 25   LegendNANA
21:00 24.1 5.8 31 0.0 25 4   98.46     LegendNANA
22:00 22.6 7.1 37 0.0 22 5   98.48     LegendNANA
23:00 21.4 8.1 42 0.0 22 5   98.48     LegendNANA

Notes on Data Quality.

Legend

  • E = Estimated
  • M = Missing
  • NA = Not Available*
  • [empty] = Indicates an unobserved value
Date modified: